This demonstration page uses our WeatherBlox Daily Observations layout. Learn more.

Left ArrowRight Arrow

38.20091, -84.87328

Hourly Observations for August 16, 2016

Temp ( °F °C ) Dew Point ( °F °C ) Humidity (%) Winds ( mph kmh ) Pressure ( in mb ) Visibility ( mi km ) Precip ( " mm )
12:53 am 00:53 Clear 76 24.4 70 21.1 82 82 SSE 7 11 30.07 1018 10 16 0.00 0.00
1:53 am 01:53 Mostly Clear 75 23.9 69 20.6 82 82 S 8 13 30.06 1018 10 16 0.00 0.00
2:53 am 02:53 Clear 74 23.3 69 20.6 85 85 SSW 6 9 30.06 1018 10 16 0.00 0.00
3:53 am 03:53 Mostly Cloudy 75 23.9 69 20.6 82 82 SSW 6 9 30.06 1018 10 16 0.00 0.00
4:53 am 04:53 Clear 74 23.3 69 20.6 85 85 S 6 9 30.06 1018 10 16 0.00 0.00
5:53 am 05:53 Clear 74 23.3 69 20.6 85 85 S 5 7 30.07 1018 10 16 0.00 0.00
6:53 am 06:53 Clear 74 23.3 69 20.6 85 85 S 5 7 30.09 1019 10 16 0.00 0.00
7:53 am 07:53 Partly Cloudy 75 23.9 69 20.6 82 82 S 6 9 30.10 1019 10 16 0.00 0.00
8:09 am 08:09 Mostly Cloudy 76 24.4 69 20.6 79 79 S 8 13 30.09 1019 10 16 0.00 0.00
8:33 am 08:33 Mostly Sunny 77 25 70 21.1 79 79 S 9 15 30.09 1019 10 16 0.00 0.00
8:53 am 08:53 Mostly Sunny 78 25.6 70 21.1 76 76 SW 10 17 30.10 1019 10 16 0.00 0.00
9:40 am 09:40 Mostly Cloudy 80 26.7 71 21.7 74 74 SW 13 20 30.09 1019 10 16 0.00 0.00
9:53 am 09:53 Mostly Cloudy 80 26.7 71 21.7 74 74 SSW 15 24 30.11 1020 10 16 0.00 0.00
10:02 am 10:02 Partly Cloudy 81 27.2 71 21.7 72 72 SW 12 19 30.09 1019 10 16 0.00 0.00
10:53 am 10:53 Partly Cloudy 82 27.8 71 21.7 69 69 SW 13 20 30.11 1020 10 16 0.00 0.00
11:53 am 11:53 Cloudy 84 28.9 71 21.7 65 65 WSW 14 22 30.11 1020 10 16 0.00 0.00
12:53 pm 12:53 Mostly Cloudy 84 28.9 71 21.7 65 65 SW 15 24 30.10 1019 10 16 0.00 0.00
1:53 pm 13:53 Cloudy with Light Rain 79 26.1 72 22.2 79 79 SW 12 19 30.10 1019 5 8 0.02 0.51
2:45 pm 14:45 Sunny with Nearby Thunderstorms 81 27.2 72 22.2 74 74 WSW 10 17 30.09 1019 10 16 0.00 0.03
2:53 pm 14:53 Partly Cloudy with Nearby Thunderstorms 81 27.2 72 22.2 74 74 SSW 13 20 30.10 1019 10 16 0.00 0.03
3:13 pm 15:13 Mostly Cloudy with Rain 78 25.6 73 22.8 85 85 S 13 20 30.09 1019 5 8 0.01 0.25
3:53 pm 15:53 Partly Cloudy 80 26.7 74 23.3 82 82 SW 8 13 30.09 1019 10 16 0.01 0.25
4:53 pm 16:53 Partly Cloudy 82 27.8 71 21.7 69 69 WSW 10 17 30.09 1019 10 16 0.00 0.00
5:53 pm 17:53 Mostly Cloudy 82 27.8 70 21.1 67 67 WSW 8 13 30.09 1019 10 16 0.00 0.00
6:53 pm 18:53 Sunny 80 26.7 71 21.7 74 74 W 5 7 30.09 1019 10 16 0.00 0.00
7:53 pm 19:53 Sunny 80 26.7 70 21.1 71 71 W 5 7 30.10 1019 10 16 0.00 0.00
8:53 pm 20:53 Mostly Clear 78 25.6 70 21.1 76 76 Calm 30.11 1020 10 16 0.00 0.00
9:53 pm 21:53 Mostly Cloudy 77 25 69 20.6 77 77 Calm 30.13 1020 10 16 0.00 0.00
10:53 pm 22:53 Mostly Cloudy 77 25 70 21.1 79 79 Calm 30.13 1020 10 16 0.00 0.00
11:53 pm 23:53 Mostly Clear 75 23.9 70 21.1 84 84 SW 3 6 30.14 1021 10 16 0.00 0.00

Powered by AerisWeather